NOAA NWS Hourly Roundups by Site

Regional Weather Roundup for Seattle, WA

To Select Another Site Choose from List

Select Site:  

000
ASUS46 KSEW 052320
RWRWA

WASHINGTON REGIONAL WEATHER ROUNDUP
NATIONAL WEATHER SERVICE SEATTLE WA
400 PM PDT MON JUN 05 2023

NOTE:"FAIR" INDICATES FEW OR NO CLOUDS BELOW 12,000 FEET WITH NO
SIGNIFICANT WEATHER AND/OR OBSTRUCTIONS TO VISIBILITY.

WAZ507-509-555>559-060000-
SEATTLE, TACOMA, EVERETT, AND VICINITY

CITY           SKY/WX    TMP DP  RH WIND       PRES   REMARKS
EVERETT        MOSUNNY   67  41  38 NW10G23   30.12F TC  19
BOEING FIELD   MOSUNNY   71  33  24 VRB6G21   30.09F TC  22
RENTON         SUNNY     71  40  32 NW18      30.08F TC  22
SEATAC AIRPORT MOSUNNY   71  31  22 N22       30.10F TC  22
JBLM-MCCHORD   SUNNY     71  31  23 NE16G23   30.08F TC  22
PUYALLUP       NOT AVBL
BREMERTON      SUNNY     73  21  14 NE15G23   30.09F TC  23
JBLM-FT LEWIS  SUNNY     72  31  22 N16       30.06F TC  22
TACOMA NARROWS SUNNY     70  37  29 N14G21    30.09F TC  21
$$

WAZ001-503-506-510-514-515-060000-
NORTH INTERIOR

CITY           SKY/WX    TMP DP  RH WIND       PRES   REMARKS
BELLINGHAM     MOSUNNY   70  42  36 NW14G20   30.13F TC  21
FRIDAY HARBOR  SUNNY     71  36  27 VRB3G16   30.14F TC  22
PORT ANGELES   SUNNY     71  35  26 VRB5      30.16F TC  22
EDIZ HOOK      FAIR      66  35  32 CALM      30.15F TC  19
PORT TOWNSEND  NOT AVBL
NAS WHIDBEY    MOSUNNY   62  44  51 W8        30.14F TC  17
ARLINGTON      MOSUNNY   69  40  34 NW14G22   30.11F TC  21
BURLINGTON     SUNNY     66  50  55 NW18      30.12F TC  19
$$

WAZ020-022-039-040-504-511-512-060000-
SOUTHWEST INTERIOR

CITY           SKY/WX    TMP DP  RH WIND       PRES   REMARKS
SHELTON        SUNNY     77  23  13 NE9G18    30.05F TC  25
OLYMPIA        SUNNY     75  28  17 NE14      30.07F TC  24
CHEHALIS       NOT AVBL
KELSO          SUNNY     79  32  18 N22G28    30.00F TC  26
VANCOUVER      SUNNY     80  35  19 NW18G28   29.96F TC  27
SCAPPOOSE, OR  SUNNY     80  31  16 N15G29    29.95F TC  27
PORTLAND, OR   MOSUNNY   82  37  20 NW16G26   29.94F TC  28
$$

WAZ021-516-517-060000-
WASHINGTON COAST

CITY           SKY/WX    TMP DP  RH WIND       PRES   REMARKS
FORKS          SUNNY     68  36  30 N16G26    30.12F TC  20
HOQUIAM        SUNNY     70  45  40 W15       30.08F TC  21
ASTORIA, OR    SUNNY     64  47  53 NW21G31   30.05F TC  18
$$

WAZ019-023-024-040-567>569-060000-
CASCADE MOUNTAINS AND COLUMBIA GORGE

CITY           SKY/WX    TMP DP  RH WIND       PRES   REMARKS
STAMPEDE PASS  SUNNY     68  32  26 VRB6      30.11F TC  20
TROUTDALE, OR  SUNNY     83  40  21 VRB6      29.92F TC  28
HOOD RIVER, OR NOT AVBL
THE DALLES, OR SUNNY     91  38  15 VRB5      29.85F TC  33
$$

WAZ026-027-041>044-520-521-060000-
EAST SLOPES

CITY           SKY/WX    TMP DP  RH WIND       PRES   REMARKS
OMAK           SUNNY     84  26  12 N17       29.97F TC  29
WENATCHEE      SUNNY     87  31  13 VRB5      29.91F TC  31
ELLENSBURG     SUNNY     87  27  11 NW13      29.94F TC  31
YAKIMA         SUNNY     88  24  10 VRB6      29.91F TC  31
SUNNYSIDE ARPT SUNNY     88  35  15 W6        29.90F TC  31
YAKIMA TC      FAIR      87  12   6 W6        29.87F TC  31
$$

WAZ028-034-035-060000-
COLUMBIA BASIN

CITY           SKY/WX    TMP DP  RH WIND       PRES   REMARKS
EPHRATA        SUNNY     89  18   7 E6        29.92F TC  32
MOSES LAKE     SUNNY     86  30  13 VRB3      29.93F TC  30
PASCO          SUNNY     91  32  12 N9        29.89F TC  33
RICHLAND ARPT  SUNNY     91  33  12 NE5       29.88F TC  33
HERMISTON, OR  SUNNY     91  35  13 NE8       29.89F TC  33
$$

WAZ036>038-060000-
NORTHEAST WASHINGTON

CITY           SKY/WX    TMP DP  RH WIND       PRES   REMARKS
SPOKANE GEIGER MOSUNNY   84  35  17 W10G18    29.97F TC  29
SPOKANE FELTS  PTSUNNY   84  37  18 W3        29.95S TC  29
FAIRCHILD AFB  MOSUNNY   84  37  19 SW9       29.95F TC  29
COEURDALENE,ID PTSUNNY   82  43  25 W7        29.97F TC  28
DEER PARK      MOSUNNY   84  33  16 MISG      29.95F TC  29
$$

WAZ029>033-060000-
SOUTHEAST WASHINGTON

CITY           SKY/WX    TMP DP  RH WIND       PRES   REMARKS
PULLMAN        PTSUNNY   75  42  30 CALM      30.02S TC  24
LEWISTON, ID   PTSUNNY   80  54  40 E6        29.94F TC  27
WALLA WALLA    SUNNY     87  40  19 NE5       29.91F TC  31
PENDLETON, OR  SUNNY     87  38  17 VRB6G17   29.93F TC  31
$$


 

View Past Reports for Seattle, WA.

Products Courtesy of NOAA-NWS
NWS Information Parsing Script by Ken True at Saratoga Weather - Script by SE Lincoln Weather.